Location: Unspecified
(52.4292°N, 19.3359°E)
Time: 17:16:45
(UTC+02:00)

Transit 2A Rocket - Pass Details

Date: 27 May 2024
Orbit: 583 x 910 km, 66.7° (Epoch: 14 June)

Event Time Altitude Azimuth Distance (km) Brightness Sun altitude
Rises 07:00:15 0° 286° (WNW) 3,192 7.7 19.8°
Reaches altitude 10° 07:03:12 10° 304° (NW) 2,332 7.2 20.3°
Maximum altitude 07:07:07 20° 351° (N) 1,817 7.1 20.9°
Drops below altitude 10° 07:11:15 10° 37° (NE) 2,486 8.4 21.5°
Sets 07:14:32 0° 54° (NE) 3,472 9.4 22.0°
